Regional Weather Roundup
Issued by NWS

Home | Current Version | Previous Version | Graphics & Text | Print | Product List | Glossary On
Versions: 1 2 3 4 5 6 7 8 9 10 11 12 13 14 15 16 17 18 19 20 21 22 23 24 25 26 27
000
ASUS45 KCYS 190510
RWRWY

WYOMING REGIONAL WEATHER ROUNDUP
NATIONAL WEATHER SERVICE CHEYENNE WY
1000 PM MST SAT FEB 18 2017

NOTE:  "FAIR" INDICATES FEW OR NO CLOUDS BELOW 12,000 FEET
WITH NO SIGNIFICANT WEATHER AND/OR OBSTRUCTIONS TO VISIBILITY.

WYZ001-190600-
YELLOWSTONE NATIONAL PARK

CITY           SKY/WX    TMP DP  RH WIND       PRES   REMARKS
LK YELLOWSTONE   N/A     31  30  96 CALM      29.62F
W YELLOWSTONE  NOT AVBL

$$
WYZ002>013-054>058-071-098>099-190600-
NORTHERN WYOMING

CITY           SKY/WX    TMP DP  RH WIND       PRES   REMARKS
JACKSON        CLOUDY    36  34  93 SW13      29.63S WCI  27
CODY           CLOUDY    39  30  70 CALM      29.55S
GREYBULL       FAIR      43  32  65 E7        29.55S
WORLAND        FAIR      41  33  73 CALM      29.57R
SHERIDAN       FAIR      36  31  82 SE13      29.53S WCI  27
BUFFALO        FAIR      49  28  44 SW10      29.56S
GILLETTE       FAIR      48  33  56 S18       29.57F
HULETT         FAIR      50  32  50 S7        29.61S
NEWCASTLE      FAIR      43  30  61 E7        29.65F

$$
WYZ014>020-022>026-101>103-190600-
CENTRAL WYOMING

CITY           SKY/WX    TMP DP  RH WIND       PRES   REMARKS
BIG PINEY      CLOUDY    28  28 100 NW3       29.70S
PINEDALE       FAIR      32  30  93 SE3       29.71S
DUBOIS         FAIR      34  27  75 S6        29.62S WCI  29
LANDER         FAIR      38  29  70 NW8       29.59R WCI  32
RIVERTON       FAIR      37  31  78 SW9       29.61R WCI  30
CASPER         FAIR      43  32  65 SW20G29   29.65F
DOUGLAS        CLOUDY    48  30  49 W9        29.67S

$$
WYZ021-027>030-104>119-190600-
SOUTHERN WYOMING

CITY           SKY/WX    TMP DP  RH WIND       PRES   REMARKS
EVANSTON       CLOUDY    35  28  75 E6        29.67S WCI  30
KEMMERER         N/A     34  30  86 CALM      29.69S
FORT BRIDGER   MOCLDY    32  32 100 W7        29.71R WCI  26
ROCK SPRINGS   CLOUDY    38  29  70 S13       29.69S WCI  30
DIXON            N/A     34  31  90 CALM      29.78F
RAWLINS        FAIR      37  30  75 S7        29.74F WCI  32
SARATOGA       FAIR      30  30 100 CALM      29.75F
LARAMIE        FAIR      34  27  75 N7        29.73F WCI  28
CHEYENNE       FAIR      35  20  54 W7        29.70S WCI  29
TORRINGTON     FAIR      42  26  53 SE6       29.66S
PINE BLUFFS    FAIR      45  21  39 S10G17    29.68F

$$




USA.gov is the U.S. government's official web portal to all federal, state and local government web resources and services.